Overview Statistics Trail Chart Weather Telemetry Raw packets
 

This is the latest recevied weather packets stored in our database for station/object PA3FNT-13. If no packets are shown the sender has not sent any weather packets the latest 10 day(s).

<< 3 4 5 6 7 8 9 >>
Time Temp. Humidity Pressure Rain* Wind** Luminosity Snow
1788399229 26.67° C 42% 1016.1 hPa - - - -
1788398329 26.67° C 41% 1016.1 hPa - - - -
1788397428 27.22° C 42% 1016.3 hPa - - - -
1788396527 27.22° C 42% 1016.5 hPa - - - -
1788395627 27.22° C 42% 1016.7 hPa - - - -
1788394727 27.22° C 42% 1016.8 hPa - - - -
1788393827 27.22° C 41% 1017 hPa - - - -
1788392927 27.78° C 40% 1017.1 hPa - - - -
1788392027 28.33° C 40% 1017.2 hPa - - - -
1788391126 29.44° C 39% 1017.6 hPa - - - -
1788390226 28.89° C 39% 1017.7 hPa - - - -
1788389326 27.78° C 40% 1017.8 hPa - - - -
1788388426 27.78° C 40% 1018 hPa - - - -
1788387526 27.78° C 40% 1018.4 hPa - - - -
1788386626 27.78° C 40% 1018.5 hPa - - - -
1788385725 28.33° C 39% 1018.4 hPa - - - -
1788384825 28.33° C 39% 1018.5 hPa - - - -
1788383925 28.33° C 38% 1018.5 hPa - - - -
1788383025 29.44° C 37% 1018.6 hPa - - - -
1788382125 30.56° C 35% 1018.7 hPa - - - -
1788381225 30.56° C 35% 1018.6 hPa - - - -
1788380324 30.56° C 35% 1018.9 hPa - - - -
1788379424 31.11° C 34% 1018.8 hPa - - - -
1788378524 31.11° C 34% 1019.1 hPa - - - -
1788377624 31.11° C 34% 1019.4 hPa - - - -

* Rain since midnight (hover to see other rain measurements)
** Current wind speed in m/s (hover to see current wind gust speed)